Regional Weather Roundup
Issued by NWS

Home | Current Version | Previous Version | Graphics & Text | Print | Product List | Glossary On
Versions: 1 2 3 4 5 6 7 8 9 10 11 12 13 14 15 16 17 18 19 20 21 22 23 24 25 26 27
000
ASUS45 KBOU 111010
RWRCO

WEATHER ROUNDUP FOR COLORADO
NATIONAL WEATHER SERVICE DENVER/BOULDER CO
300 AM MST MON DEC 11 2017

NOTE: "FAIR" INDICATES FEW OR NO CLOUDS BELOW 12000 FEET WITH NO
SIGNIFICANT WEATHER AND/OR OBSTRUCTIONS TO VISIBILITY.

COZ001>005-013-030-031-111100-
...NORTHWEST COLORADO...

CITY           SKY/WX    TMP DP  RH WIND       PRES   REMARKS
CRAIG          FAIR       5   0  79 CALM      30.56S
HAYDEN         FAIR      20   8  60 E10       30.56S WCI   9
MEEKER         FAIR      13   3  64 CALM      30.55S
RABBIT EARS PA FAIR      21   3  45 W7        30.55S WCI  13
STEAMBOAT SPGS FAIR      14   8  75 CALM      30.56S
WALDEN         FAIR       3  -4  72 SE7       30.53F WCI  -9
$$

COZ006>008-011-111100-
...WEST CENTRAL VALLEYS...

CITY           SKY/WX    TMP DP  RH WIND       PRES   REMARKS
GRAND JUNCTION FAIR      17  -1  45 E5        30.55S WCI  10
MONTROSE       FAIR      19  -1  41 S8        30.57R WCI   9
EAGLE          FAIR       7   3  84 SE3       30.66R
RIFLE          FAIR      15   2  56 S6        30.59R WCI   6
DELTA          FAIR      20  -4  33 CALM      30.57S
NUCLA          FAIR      18 -11  27 E9        30.56R WCI   6
$$

COZ017>023-064>068-111100-
...SOUTHWEST COLORADO...

CITY           SKY/WX    TMP DP  RH WIND       PRES   REMARKS
DURANGO        FAIR      12  -2  53 CALM      30.50R
CORTEZ         FAIR       9  -2  61 NE5       30.51R WCI   1
PAGOSA SPRINGS FAIR      18  -3  40 SW3       30.49S
TELLURIDE      FAIR      29  -6  21 SE6       30.56S WCI  23
WOLF CREEK PAS FAIR      28  -9  19 N8        30.63F WCI  20
$$

COZ009-010-012-014-032>034-037-058>063-111100-
...CENTRAL COLORADO...

CITY           SKY/WX    TMP DP  RH WIND       PRES   REMARKS
ASPEN          FAIR      13   1  59 S6        30.55R WCI   4
BUENA VISTA    FAIR      22  -4  32 W10       30.49F WCI  11
COPPER MTN     NOT AVBL
BERTHOUD PASS  FAIR      19   9  63 NW18G25   30.56F WCI   4
COTTONWOOD PAS FAIR      41 -18   7 W10       30.51F
GUNNISON       FAIR       2  -5  72 CALM      30.61S
KREMMLING      FAIR       1  -4  78 CALM      30.64S
LEADVILLE      FAIR      18 -10  28 NE10      30.53F WCI   6
MONARCH PASS   FAIR      28 -13  16 NW12      30.69S WCI  18
SALIDA         FAIR      28  -4  24 NW5       30.57S WCI  23
SUNLIGHT       FAIR      28 -18  12 NW8       30.63S WCI  20
WILKERSON PASS FAIR      32 -22   9 N10G18    30.55S WCI  24
$$

COZ069>075-111100-
...SAN LUIS VALLEY/SANGRE DE CRISTO MOUNTAINS...

CITY           SKY/WX    TMP DP  RH WIND       PRES   REMARKS
ALAMOSA        FAIR       2  -8  63 SE6       30.49F WCI  -9
DEL NORTE      FAIR      25  -9  21 W18G26    30.48F WCI  12
LA VETA PASS   FAIR      28 -11  17 SW17        N/A  WCI  16
SAGUACHE       FAIR      27  -9  20 NW9       30.50S WCI  17
$$

COZ035-036-038>040-111100-
...NORTHERN COLORADO FRONT RANGE...

CITY           SKY/WX    TMP DP  RH WIND       PRES   REMARKS
DENVER INTL AP FAIR      34  -3  20 SW10      30.32F WCI  26
DMNS CITY PARK NOT AVBL
AURORA         CLEAR     35  -3  19 S8        30.34S WCI  29
FRONT RANGE AP FAIR      38  -3  18 SW6       30.34S
ERIE MUNI ARPT FAIR      19   9  66 S6        30.38F WCI  11
BOULDER MUN AP FAIR      36   5  27 S7        30.32F
CENTENNIAL     FAIR      29   1  30 CALM      30.35R
BROOMFIELD     FAIR      41   0  17 CALM      30.34S
FORT COLLINS   FAIR      29  11  47 SE8       30.31F WCI  21
LONGMONT       NOT AVBL
$$

COZ041-046-047-076>085-087-088-111100-
...PIKES PEAK/PALMER DIVIDE AND SOUTHERN FOOTHILLS...

CITY           SKY/WX    TMP DP  RH WIND       PRES   REMARKS
COLO. SPRINGS  FAIR      37  -2  19 N10       30.35S
A. F. ACADEMY  FAIR      24  -4  29 N10       30.36R WCI  13
SCHRIEVER AFB  FAIR      41  -6  13 N9        30.34S
CHEYENNE MTN   FAIR      45  -4  13 CALM      30.31S
ELLICOTT         N/A    N/A N/A N/A NE3       30.32S
FALCON         FAIR      33  -6  18 NW10      30.37S WCI  25
FORT CARSON    FAIR      37  -2  19 NW14      30.32S
LIMON          FAIR      14  -4  44 W3        30.33R
MONUMENT HILL  FAIR      28   0  29 W7        30.39S WCI  21
CANON CITY     FAIR      45  -4  13 W16       30.34S
WALSENBURG     FAIR      43  -6  13 SW13      30.34F
TRINIDAD       FAIR      33   2  26 W20       30.32F WCI  21
$$

COZ042>045-048>051-090-091-111100-
...NORTHEAST COLORADO...

CITY           SKY/WX    TMP DP  RH WIND       PRES   REMARKS
GREELEY ARPT   FAIR      16   6  65 S3        30.33S
AKRON          FAIR      29  -2  26 W10       30.30S WCI  20
BURLINGTON     FAIR      28   2  32 W13       30.27F WCI  17
WRAY           FAIR      32   3  29 W8        30.26S WCI  25
YUMA           FAIR      30   3  31 W13       30.27F WCI  20
STERLING       FAIR      19   5  53 S5        30.29S WCI  13
HOLYOKE        FAIR      34   7  32 W13       30.24F WCI  25
FORT MORGAN    FAIR      20   6  52 W7        30.31S WCI  11
$$

COZ086-089-092>099-111100-
...SOUTHEAST COLORADO...

CITY           SKY/WX    TMP DP  RH WIND       PRES   REMARKS
PUEBLO         FAIR      21   4  47 CALM      30.31S
LA JUNTA       FAIR      27   4  37 W15       30.30R WCI  15
LAMAR          FAIR      25   3  38 W7        30.29R WCI  17
SPRINGFIELD      N/A     32   3  29 W9        30.25F WCI  24
$$




USA.gov is the U.S. government's official web portal to all federal, state and local government web resources and services.